User: anonymous   Login
Location: Meetinghouse Hill
(42.7686°N, 71.7752°W)
Time: 15:34:47
(UTC-05:00)
Language:

Iridium 34 - Orbit

View from above orbital plane
View from above orbital plane
View from above satellite
View from above satellite

Ground track
Ground track

The orbit data is extracted from the following two-line orbital elements,

1 24969U 97056E   17328.38697954  .00000205  00000-0  66062-4 0  9990
2 24969  86.3982 251.8207 0002115  81.5477 278.5958 14.34220120 55490
Epoch (UTC): 24 November 2017 09:17:15
Eccentricity: 0.0002115
inclination: 86.3982°
perigee height: 776 km
apogee height: 779 km
right ascension of ascending node: 251.8207°
argument of perigee: 81.5477°
revolutions per day: 14.34220120
mean anomaly at epoch: 278.5958°
orbit number at epoch: 5549

The dashed part of the orbit path shows where the satellite is in the earth's shadow,  

DLR